User: anonymous   Login
Location: Unspecified
(0.0000°N, 0.0000°E)
Time: 23:38:37
(UTC+00:00)
Language:

USA 48 - Orbit

View from above orbital plane
View from above orbital plane
View from above satellite
View from above satellite

Ground track
Ground track

The orbit data is extracted from the following two-line orbital elements,

1 20355U 89090B   17319.25574209 0.00000000  00000-0  00000-0 0    09
2 20355  18.1906  13.6130 0286392  25.6936 335.7142  1.00734332    05
Epoch (UTC): 15 November 2017 06:08:16
Eccentricity: 0.0286392
inclination: 18.1906°
perigee height: 34453 km
apogee height: 36861 km
right ascension of ascending node: 13.6130°
argument of perigee: 25.6936°
revolutions per day: 1.00734332
mean anomaly at epoch: 335.7142°
orbit number at epoch: 0

The dashed part of the orbit path shows where the satellite is in the earth's shadow,  

DLR